Time,TemperatureF,DewpointF,PressureIn,WindDirection,WindDirectionDegrees,WindSpeedMPH,WindSpeedGustMPH,Humidity,HourlyPrecipIn,Conditions,Clouds,dailyrainin,SoftwareType,DateUTC
2013-02-26 00:00:00,72.6,69.8,29.77,ESE,116,3.9,5.8,91,0.00,CLR,,0.01,WeatherDisplay:10.37,2013-02-26 05:00:00,
2013-02-26 00:05:00,72.6,69.8,29.77,SSE,153,1.8,3.5,91,0.00,CLR,,0.00,WeatherDisplay:10.37,2013-02-26 05:05:00,
2013-02-26 00:10:00,72.5,69.7,29.77,ESE,122,2.7,3.5,91,0.00,CLR,,0.00,WeatherDisplay:10.37,2013-02-26 05:10:00,
2013-02-26 00:15:00,72.5,69.7,29.76,SE,146,2.9,5.8,91,0.00,CLR,,0.00,WeatherDisplay:10.37,2013-02-26 05:15:00,
2013-02-26 00:20:00,72.5,69.7,29.76,SE,133,3.2,4.6,91,0.00,CLR,,0.00,WeatherDisplay:10.37,2013-02-26 05:20:00,
2013-02-26 00:25:00,72.6,69.8,29.76,SE,134,3.3,8.1,91,0.00,CLR,,0.00,WeatherDisplay:10.37,2013-02-26 05:25:00,
2013-02-26 00:30:00,72.6,69.8,29.76,SSE,162,1.8,3.5,91,0.00,CLR,,0.00,WeatherDisplay:10.37,2013-02-26 05:30:00,
2013-02-26 00:35:00,72.6,69.8,29.76,South,188,2.2,4.6,91,0.00,CLR,,0.00,WeatherDisplay:10.37,2013-02-26 05:35:00,
2013-02-26 00:40:00,72.6,69.8,29.76,SE,124,1.8,3.5,91,0.00,CLR,,0.00,WeatherDisplay:10.37,2013-02-26 05:40:00,
2013-02-26 00:45:00,72.6,69.8,29.75,SSE,148,2.3,3.5,91,0.00,CLR,,0.00,WeatherDisplay:10.37,2013-02-26 05:45:00,
2013-02-26 00:50:00,72.6,69.8,29.75,SSE,150,4.3,6.9,91,0.00,CLR,,0.00,WeatherDisplay:10.37,2013-02-26 05:50:00,
2013-02-26 00:55:00,72.7,69.9,29.75,ESE,111,2.9,5.8,91,0.00,CLR,,0.00,WeatherDisplay:10.37,2013-02-26 05:55:00,
2013-02-26 01:00:00,72.7,69.9,29.75,SE,141,2.4,5.0,91,0.00,CLR,,0.00,WeatherDisplay:10.37,2013-02-26 06:00:00,
2013-02-26 01:05:00,72.8,70.0,29.75,SSE,153,2.3,3.5,91,0.00,CLR,,0.00,WeatherDisplay:10.37,2013-02-26 06:05:00,
2013-02-26 01:10:00,72.8,70.0,29.75,ESE,120,4.0,6.9,91,0.00,CLR,,0.00,WeatherDisplay:10.37,2013-02-26 06:10:00,
2013-02-26 01:15:00,72.9,70.1,29.75,SE,133,3.0,4.6,91,0.00,CLR,,0.00,WeatherDisplay:10.37,2013-02-26 06:15:00,
2013-02-26 01:20:00,72.9,70.1,29.76,SE,146,2.5,3.5,91,0.00,CLR,,0.00,WeatherDisplay:10.37,2013-02-26 06:20:00,
2013-02-26 01:25:00,72.9,70.1,29.75,SE,130,3.6,5.8,91,0.00,CLR,,0.00,WeatherDisplay:10.37,2013-02-26 06:25:00,
2013-02-26 01:30:00,73.1,70.3,29.75,SSE,153,2.8,5.8,91,0.00,CLR,,0.00,WeatherDisplay:10.37,2013-02-26 06:30:00,
2013-02-26 01:35:00,73.1,70.3,29.75,SSE,166,2.3,3.5,91,0.00,SCT,,0.00,WeatherDisplay:10.37,2013-02-26 06:35:00,
2013-02-26 01:40:00,73.4,70.6,29.75,SW,215,6.8,11.0,91,0.00,SCT,,0.00,WeatherDisplay:10.37,2013-02-26 06:40:00,
2013-02-26 01:45:00,73.7,71.2,29.75,ESE,120,8.2,13.8,92,0.00,SCT,,0.00,WeatherDisplay:10.37,2013-02-26 06:45:00,
2013-02-26 01:50:00,73.9,71.4,29.75,South,173,6.8,11.0,92,0.00,SCT,,0.00,WeatherDisplay:10.37,2013-02-26 06:50:00,
2013-02-26 01:55:00,74.0,71.5,29.75,South,177,7.6,13.8,92,0.00,SCT,,0.00,WeatherDisplay:10.37,2013-02-26 06:55:00,
2013-02-26 02:00:00,74.0,71.5,29.75,South,180,8.8,11.5,92,0.00,SCT,,0.00,WeatherDisplay:10.37,2013-02-26 07:00:00,
2013-02-26 02:05:00,73.9,71.4,29.75,SSE,160,7.3,11.5,92,0.00,BKN,,0.00,WeatherDisplay:10.37,2013-02-26 07:05:00,
2013-02-26 02:10:00,73.9,71.7,29.75,SE,143,7.7,11.5,93,0.00,BKN,,0.00,WeatherDisplay:10.37,2013-02-26 07:10:00,
2013-02-26 02:15:00,73.8,71.6,29.74,SSE,150,8.2,12.7,93,0.00,BKN,,0.00,WeatherDisplay:10.37,2013-02-26 07:15:00,
2013-02-26 02:20:00,73.7,71.5,29.74,SE,139,8.4,13.8,93,0.00,BKN,,0.00,WeatherDisplay:10.37,2013-02-26 07:20:00,
2013-02-26 02:25:00,73.7,71.5,29.74,SSE,148,8.7,15.0,93,0.00,BKN,,0.00,WeatherDisplay:10.37,2013-02-26 07:25:00,
2013-02-26 02:30:00,73.6,71.4,29.73,SE,141,6.6,11.5,93,0.00,BKN,,0.00,WeatherDisplay:10.37,2013-02-26 07:30:00,
2013-02-26 02:35:00,73.6,71.4,29.73,ESE,119,7.8,13.0,93,0.00,BKN,,0.00,WeatherDisplay:10.37,2013-02-26 07:35:00,
2013-02-26 02:40:00,73.5,71.4,29.73,South,188,7.6,12.7,93,0.00,BKN,,0.00,WeatherDisplay:10.37,2013-02-26 07:40:00,
2013-02-26 02:45:00,73.5,71.4,29.73,SSW,207,9.8,13.8,93,0.00,BKN,,0.00,WeatherDisplay:10.37,2013-02-26 07:45:00,
2013-02-26 02:50:00,73.5,71.4,29.72,South,183,9.8,16.1,93,0.00,BKN,,0.00,WeatherDisplay:10.37,2013-02-26 07:50:00,
2013-02-26 02:55:00,73.5,71.4,29.72,ESE,115,6.4,12.7,93,0.00,BKN,,0.00,WeatherDisplay:10.37,2013-02-26 07:55:00,
2013-02-26 03:00:00,73.5,71.0,29.72,SSW,204,9.3,14.0,92,0.00,BKN,,0.00,WeatherDisplay:10.37,2013-02-26 08:00:00,
2013-02-26 03:05:00,73.6,70.8,29.72,SSE,152,6.5,11.5,91,0.00,BKN,,0.00,WeatherDisplay:10.37,2013-02-26 08:05:00,
2013-02-26 03:10:00,73.7,70.6,29.72,ESE,121,8.2,19.6,90,0.00,BKN,,0.00,WeatherDisplay:10.37,2013-02-26 08:10:00,
2013-02-26 03:15:00,73.8,70.0,29.72,ESE,107,8.4,13.8,88,0.00,BKN,,0.00,WeatherDisplay:10.37,2013-02-26 08:15:00,
2013-02-26 03:20:00,73.9,69.8,29.72,SSE,150,6.1,12.7,87,0.00,BKN,,0.00,WeatherDisplay:10.37,2013-02-26 08:20:00,
2013-02-26 03:25:00,74.0,69.5,29.72,South,179,10.7,15.0,86,0.00,BKN,,0.00,WeatherDisplay:10.37,2013-02-26 08:25:00,
2013-02-26 03:31:00,74.1,69.3,29.71,South,188,7.8,18.0,85,0.00,BKN,,0.00,WeatherDisplay:10.37,2013-02-26 08:31:00,
2013-02-26 03:36:00,74.1,69.0,29.71,SE,134,7.7,11.5,84,0.00,BKN,,0.00,WeatherDisplay:10.37,2013-02-26 08:36:00,
2013-02-26 04:09:00,74.3,70.2,29.69,SW,228,0.0,12.0,87,0.00,CLR,,0.00,WeatherDisplay:10.37,2013-02-26 09:09:00,
2013-02-26 04:14:00,74.3,70.5,29.70,South,174,9.7,10.0,88,0.00,OVC,,0.00,WeatherDisplay:10.37,2013-02-26 09:14:00,
2013-02-26 04:19:00,74.3,70.5,29.69,SSW,203,15.3,19.6,88,0.00,OVC,,0.00,WeatherDisplay:10.37,2013-02-26 09:19:00,
2013-02-26 04:24:00,74.3,70.5,29.70,SSE,148,10.4,17.3,88,0.00,OVC,,0.00,WeatherDisplay:10.37,2013-02-26 09:24:00,
2013-02-26 04:29:00,74.4,70.9,29.70,SE,131,5.2,17.3,89,0.00,OVC,,0.00,WeatherDisplay:10.37,2013-02-26 09:29:00,
2013-02-26 04:34:00,74.4,70.9,29.70,SSE,158,9.8,15.0,89,0.00,OVC,,0.00,WeatherDisplay:10.37,2013-02-26 09:34:00,
2013-02-26 04:39:00,74.4,70.6,29.70,SSE,148,11.6,16.1,88,0.00,OVC,,0.00,WeatherDisplay:10.37,2013-02-26 09:39:00,
2013-02-26 04:44:00,74.5,70.7,29.70,South,176,10.4,19.6,88,0.00,OVC,,0.00,WeatherDisplay:10.37,2013-02-26 09:44:00,
2013-02-26 04:49:00,74.5,71.0,29.71,SSW,205,10.4,17.0,89,0.00,OVC,,0.00,WeatherDisplay:10.37,2013-02-26 09:49:00,
2013-02-26 04:54:00,74.4,70.9,29.71,East,87,6.9,18.4,89,0.00,OVC,,0.00,WeatherDisplay:10.37,2013-02-26 09:54:00,
2013-02-26 04:59:00,74.4,70.9,29.71,SSE,153,7.1,13.8,89,0.00,OVC,,0.00,WeatherDisplay:10.37,2013-02-26 09:59:00,
2013-02-26 05:04:00,74.4,70.9,29.71,SSE,149,9.1,16.1,89,0.00,OVC,,0.00,WeatherDisplay:10.37,2013-02-26 10:04:00,
2013-02-26 05:09:00,74.2,71.1,29.72,SSW,193,7.9,13.8,90,0.00,OVC,,0.00,WeatherDisplay:10.37,2013-02-26 10:09:00,
2013-02-26 05:14:00,74.1,71.0,29.72,SE,139,10.2,16.1,90,0.00,OVC,,0.00,WeatherDisplay:10.37,2013-02-26 10:14:00,
2013-02-26 05:19:00,74.1,71.0,29.72,South,188,10.5,13.8,90,0.00,OVC,,0.00,WeatherDisplay:10.37,2013-02-26 10:19:00,
2013-02-26 05:24:00,74.0,70.9,29.72,SE,135,8.8,12.7,90,0.00,OVC,,0.00,WeatherDisplay:10.37,2013-02-26 10:24:00,
2013-02-26 05:29:00,74.0,70.9,29.72,South,173,9.5,13.8,90,0.00,OVC,,0.00,WeatherDisplay:10.37,2013-02-26 10:29:00,
2013-02-26 05:34:00,73.9,71.1,29.72,SSW,195,9.4,18.4,91,0.00,OVC,,0.00,WeatherDisplay:10.37,2013-02-26 10:34:00,
2013-02-26 05:39:00,73.8,71.0,29.72,SSE,162,8.1,15.0,91,0.00,OVC,,0.00,WeatherDisplay:10.37,2013-02-26 10:39:00,
2013-02-26 05:44:00,73.7,70.9,29.72,South,173,8.6,15.0,91,0.00,OVC,,0.00,WeatherDisplay:10.37,2013-02-26 10:44:00,
2013-02-26 05:49:00,73.6,70.8,29.72,South,191,9.6,21.0,91,0.00,OVC,,0.00,WeatherDisplay:10.37,2013-02-26 10:49:00,
2013-02-26 05:54:00,73.6,71.1,29.72,SSW,193,4.6,16.1,92,0.00,OVC,,0.00,WeatherDisplay:10.37,2013-02-26 10:54:00,
2013-02-26 05:59:00,73.5,71.0,29.72,South,175,8.6,11.5,92,0.00,OVC,,0.00,WeatherDisplay:10.37,2013-02-26 10:59:00,
2013-02-26 06:04:00,73.4,70.9,29.73,SSE,147,7.9,10.4,92,0.00,OVC,,0.00,WeatherDisplay:10.37,2013-02-26 11:04:00,
2013-02-26 06:09:00,73.3,70.8,29.73,South,174,8.7,11.5,92,0.00,OVC,,0.00,WeatherDisplay:10.37,2013-02-26 11:09:00,
2013-02-26 06:14:00,73.2,70.7,29.73,South,181,8.4,11.5,92,0.00,OVC,,0.00,WeatherDisplay:10.37,2013-02-26 11:14:00,
2013-02-26 06:19:00,73.1,71.0,29.73,SSW,196,8.4,13.8,93,0.00,OVC,,0.00,WeatherDisplay:10.37,2013-02-26 11:19:00,
2013-02-26 06:24:00,73.1,71.0,29.73,South,181,10.7,18.4,93,0.00,OVC,,0.00,WeatherDisplay:10.37,2013-02-26 11:24:00,
2013-02-26 06:29:00,73.2,71.1,29.73,SSW,200,11.5,15.0,93,0.00,OVC,,0.00,WeatherDisplay:10.37,2013-02-26 11:29:00,
2013-02-26 06:34:00,73.2,71.1,29.73,South,183,9.1,13.8,93,0.00,OVC,,0.00,WeatherDisplay:10.37,2013-02-26 11:34:00,
2013-02-26 06:39:00,73.2,71.1,29.73,SSE,166,9.6,12.7,93,0.00,OVC,,0.00,WeatherDisplay:10.37,2013-02-26 11:39:00,
2013-02-26 06:44:00,73.3,71.2,29.73,South,186,9.0,17.3,93,0.00,OVC,,0.00,WeatherDisplay:10.37,2013-02-26 11:44:00,
2013-02-26 06:49:00,73.3,71.2,29.74,SSW,193,6.2,12.7,93,0.00,OVC,,0.00,WeatherDisplay:10.37,2013-02-26 11:49:00,
2013-02-26 06:54:00,73.3,71.2,29.74,ESE,113,8.5,13.8,93,0.00,OVC,,0.00,WeatherDisplay:10.37,2013-02-26 11:54:00,
2013-02-26 06:59:00,73.3,71.2,29.74,SE,136,8.9,11.5,93,0.00,OVC,,0.00,WeatherDisplay:10.37,2013-02-26 11:59:00,
2013-02-26 07:04:00,73.3,71.2,29.74,SSE,153,6.1,8.1,93,0.00,OVC,,0.00,WeatherDisplay:10.37,2013-02-26 12:04:00,
2013-02-26 07:09:00,73.2,71.1,29.74,ENE,61,5.0,11.5,93,0.00,OVC,,0.00,WeatherDisplay:10.37,2013-02-26 12:09:00,
2013-02-26 07:14:00,73.3,71.2,29.73,South,180,8.9,8.9,93,0.00,OVC,,0.00,WeatherDisplay:10.37,2013-02-26 12:14:00,
2013-02-26 07:19:00,73.3,71.2,29.73,South,169,9.9,23.0,93,0.00,OVC,,0.00,WeatherDisplay:10.37,2013-02-26 12:19:00,
2013-02-26 07:24:00,73.3,71.2,29.74,SSE,165,12.8,19.6,93,0.00,OVC,,0.00,WeatherDisplay:10.37,2013-02-26 12:24:00,
2013-02-26 08:06:00,74.5,72.0,29.74,South,173,8.5,20.0,92,0.00,OVC,,0.00,WeatherDisplay:10.37,2013-02-26 13:06:00,
2013-02-26 08:11:00,74.8,72.0,29.75,SE,144,11.0,19.6,91,0.00,BKN,,0.00,WeatherDisplay:10.37,2013-02-26 13:11:00,
2013-02-26 08:16:00,74.9,72.1,29.75,SSE,159,12.2,23.0,91,0.00,BKN,,0.00,WeatherDisplay:10.37,2013-02-26 13:16:00,
2013-02-26 08:21:00,75.1,72.3,29.74,SSE,159,8.8,12.7,91,0.00,SCT,,0.00,WeatherDisplay:10.37,2013-02-26 13:21:00,
2013-02-26 09:44:00,74.4,71.9,29.80,SSE,168,7.1,31.1,92,0.00,SCT,,0.00,WeatherDisplay:10.37,2013-02-26 14:44:00,
2013-02-26 09:49:00,74.3,71.8,29.80,South,191,8.9,12.7,92,0.00,SCT,,0.00,WeatherDisplay:10.37,2013-02-26 14:49:00,
2013-02-26 09:54:00,74.2,71.7,29.81,South,176,11.6,21.9,92,0.00,SCT,,0.00,WeatherDisplay:10.37,2013-02-26 14:54:00,
2013-02-26 09:59:00,74.1,71.6,29.81,South,169,6.1,11.0,92,0.00,SCT,,0.00,WeatherDisplay:10.37,2013-02-26 14:59:00,
2013-02-26 10:04:00,74.0,71.5,29.81,South,172,12.7,17.0,92,0.00,OVC,,0.00,WeatherDisplay:10.37,2013-02-26 15:04:00,
2013-02-26 10:09:00,73.9,71.4,29.81,SSE,148,6.0,10.4,92,0.00,OVC,,0.00,WeatherDisplay:10.37,2013-02-26 15:09:00,
2013-02-26 10:14:00,73.8,71.6,29.81,SSE,166,9.4,13.0,93,0.00,OVC,,0.00,WeatherDisplay:10.37,2013-02-26 15:14:00,
2013-02-26 10:19:00,73.7,71.5,29.81,SSW,194,9.2,12.7,93,0.00,OVC,,0.00,WeatherDisplay:10.37,2013-02-26 15:19:00,
2013-02-26 10:36:00,73.3,71.5,29.80,SSE,155,9.2,20.7,94,0.00,OVC,,0.00,WeatherDisplay:10.37,2013-02-26 15:36:00,
2013-02-26 10:41:00,73.1,71.3,29.80,SSE,166,9.9,14.0,94,0.00,OVC,,0.00,WeatherDisplay:10.37,2013-02-26 15:41:00,
2013-02-26 10:46:00,73.0,71.2,29.82,SSW,207,12.3,21.9,94,0.01,RA,,0.01,WeatherDisplay:10.37,2013-02-26 15:46:00,
2013-02-26 10:51:00,72.9,71.4,29.82,South,181,10.9,19.6,95,0.01,OVC,,0.02,WeatherDisplay:10.37,2013-02-26 15:51:00,
2013-02-26 10:56:00,72.8,71.3,29.81,South,176,9.0,12.7,95,0.03,RA,,0.03,WeatherDisplay:10.37,2013-02-26 15:56:00,
2013-02-26 11:01:00,72.7,71.2,29.82,SSE,153,8.8,12.7,95,0.03,OVC,,0.03,WeatherDisplay:10.37,2013-02-26 16:01:00,
2013-02-26 11:06:00,72.7,71.5,29.80,South,173,7.7,12.7,96,0.04,OVC,,0.04,WeatherDisplay:10.37,2013-02-26 16:06:00,
2013-02-26 11:11:00,72.7,71.5,29.81,SW,236,8.4,18.4,96,0.06,RA,,0.06,WeatherDisplay:10.37,2013-02-26 16:11:00,
2013-02-26 11:16:00,72.7,71.5,29.81,SSE,155,7.8,17.3,96,0.07,RA,,0.07,WeatherDisplay:10.37,2013-02-26 16:16:00,
2013-02-26 11:21:00,72.7,71.5,29.80,SSE,149,9.2,15.0,96,0.07,OVC,,0.07,WeatherDisplay:10.37,2013-02-26 16:21:00,
2013-02-26 11:26:00,72.7,71.5,29.81,SW,228,8.9,12.7,96,0.08,OVC,,0.08,WeatherDisplay:10.37,2013-02-26 16:26:00,
2013-02-26 11:31:00,72.6,71.4,29.81,South,184,7.6,11.5,96,0.09,-RA,,0.09,WeatherDisplay:10.37,2013-02-26 16:31:00,
2013-02-26 11:36:00,72.5,71.3,29.81,ESE,122,5.0,16.1,96,0.10,-RA,,0.10,WeatherDisplay:10.37,2013-02-26 16:36:00,
2013-02-26 11:41:00,71.1,68.7,29.83,SW,221,4.1,9.2,92,0.18,-RA,,0.19,WeatherDisplay:10.37,2013-02-26 16:41:00,
2013-02-26 11:46:00,69.7,67.9,29.83,WNW,288,2.5,5.8,94,0.22,-RA,,0.23,WeatherDisplay:10.37,2013-02-26 16:46:00,
2013-02-26 11:51:00,68.7,66.6,29.83,WNW,284,3.3,4.6,93,0.24,OVC,,0.25,WeatherDisplay:10.37,2013-02-26 16:51:00,
2013-02-26 11:56:00,67.7,65.9,29.83,West,271,0.7,3.0,94,0.26,OVC,,0.29,WeatherDisplay:10.37,2013-02-26 16:56:00,
2013-02-26 12:01:00,67.2,65.7,29.83,WSW,240,0.7,2.3,95,0.28,RA,,0.31,WeatherDisplay:10.37,2013-02-26 17:01:00,
2013-02-26 12:06:00,67.0,65.5,29.82,WSW,249,0.7,2.3,95,0.27,OVC,,0.31,WeatherDisplay:10.37,2013-02-26 17:06:00,
2013-02-26 12:11:00,67.0,65.8,29.82,NW,321,0.1,1.1,96,0.25,OVC,,0.31,WeatherDisplay:10.37,2013-02-26 17:11:00,
2013-02-26 12:16:00,67.0,65.8,29.82,SW,222,0.1,1.1,96,0.25,RA,,0.32,WeatherDisplay:10.37,2013-02-26 17:16:00,
2013-02-26 12:21:00,67.0,65.8,29.82,West,269,0.3,2.3,96,0.25,OVC,,0.32,WeatherDisplay:10.37,2013-02-26 17:21:00,
2013-02-26 12:26:00,66.9,65.7,29.82,WNW,295,1.0,2.3,96,0.24,OVC,,0.32,WeatherDisplay:10.37,2013-02-26 17:26:00,
2013-02-26 12:31:00,66.9,65.7,29.82,North,11,0.0,0.0,96,0.24,OVC,,0.33,WeatherDisplay:10.37,2013-02-26 17:31:00,
2013-02-26 12:36:00,66.9,65.7,29.81,WNW,290,0.3,3.5,96,0.23,OVC,,0.33,WeatherDisplay:10.37,2013-02-26 17:36:00,
2013-02-26 12:41:00,67.0,65.8,29.81,WSW,246,0.0,0.0,96,0.16,-RA,,0.35,WeatherDisplay:10.37,2013-02-26 17:41:00,
2013-02-26 12:46:00,67.1,65.9,29.81,West,275,0.2,0.0,96,0.12,-RA,,0.35,WeatherDisplay:10.37,2013-02-26 17:46:00,
2013-02-26 12:51:00,67.3,66.4,29.81,West,274,0.3,1.1,97,0.11,-RA,,0.36,WeatherDisplay:10.37,2013-02-26 17:51:00,
2013-02-26 12:56:00,67.3,66.1,29.81,West,265,0.1,1.1,96,0.07,-RA,,0.36,WeatherDisplay:10.37,2013-02-26 17:56:00,
2013-02-26 13:01:00,67.3,66.1,29.81,West,279,0.0,0.0,96,0.05,-RA,,0.36,WeatherDisplay:10.37,2013-02-26 18:01:00,
2013-02-26 13:06:00,67.5,66.6,29.81,SSW,203,0.1,1.1,97,0.05,-RA,,0.36,WeatherDisplay:10.37,2013-02-26 18:06:00,
2013-02-26 13:11:00,67.5,66.6,29.81,SSE,153,0.4,2.3,97,0.06,-RA,,0.37,WeatherDisplay:10.37,2013-02-26 18:11:00,
2013-02-26 13:16:00,67.5,66.3,29.80,SSW,204,1.0,2.3,96,0.06,-RA,,0.38,WeatherDisplay:10.37,2013-02-26 18:16:00,
2013-02-26 13:21:00,67.4,66.2,29.80,South,184,0.8,3.5,96,0.07,-RA,,0.39,WeatherDisplay:10.37,2013-02-26 18:21:00,
2013-02-26 13:26:00,67.7,66.8,29.79,SSE,156,1.4,2.3,97,0.07,-RA,,0.39,WeatherDisplay:10.37,2013-02-26 18:26:00,
2013-02-26 13:31:00,68.0,67.1,29.79,SE,143,3.5,5.8,97,0.06,-RA,,0.39,WeatherDisplay:10.37,2013-02-26 18:31:00,
2013-02-26 13:36:00,68.1,67.2,29.78,South,188,5.2,8.1,97,0.06,-RA,,0.39,WeatherDisplay:10.37,2013-02-26 18:36:00,
2013-02-26 13:41:00,68.5,67.6,29.78,SE,124,3.8,5.8,97,0.05,-RA,,0.39,WeatherDisplay:10.37,2013-02-26 18:41:00,
2013-02-26 13:46:00,68.6,67.7,29.77,SSE,154,5.0,8.1,97,0.04,-RA,,0.39,WeatherDisplay:10.37,2013-02-26 18:46:00,
2013-02-26 13:51:00,68.7,67.5,29.77,SW,215,4.1,6.0,96,0.03,-RA,,0.39,WeatherDisplay:10.37,2013-02-26 18:51:00,
2013-02-26 13:56:00,68.7,67.8,29.77,SE,146,7.0,9.2,97,0.03,-RA,,0.39,WeatherDisplay:10.37,2013-02-26 18:56:00,
2013-02-26 14:01:00,69.0,68.1,29.77,South,179,4.7,6.9,97,0.03,-RA,,0.39,WeatherDisplay:10.37,2013-02-26 19:01:00,
2013-02-26 14:06:00,69.4,68.2,29.77,SSW,201,5.2,7.0,96,0.03,-RA,,0.39,WeatherDisplay:10.37,2013-02-26 19:06:00,
2013-02-26 14:11:00,69.9,68.7,29.77,SSE,168,7.1,10.4,96,0.02,-RA,,0.39,WeatherDisplay:10.37,2013-02-26 19:11:00,
2013-02-26 14:16:00,70.4,68.9,29.77,South,190,5.2,9.2,95,0.01,-RA,,0.39,WeatherDisplay:10.37,2013-02-26 19:16:00,
2013-02-26 14:21:00,71.0,69.5,29.77,South,190,3.4,4.6,95,0.00,-RA,,0.39,WeatherDisplay:10.37,2013-02-26 19:21:00,
2013-02-26 14:26:00,71.3,69.8,29.78,SSW,205,4.1,8.1,95,0.00,-RA,,0.39,WeatherDisplay:10.37,2013-02-26 19:26:00,
2013-02-26 14:31:00,71.9,69.8,29.78,WSW,256,5.4,10.4,93,0.00,-RA,,0.39,WeatherDisplay:10.37,2013-02-26 19:31:00,
2013-02-26 14:36:00,72.7,70.9,29.78,WSW,246,2.5,4.0,94,0.00,-RA,,0.39,WeatherDisplay:10.37,2013-02-26 19:36:00,
2013-02-26 14:41:00,73.0,69.9,29.78,SSE,156,4.1,8.1,90,0.00,-RA,,0.39,WeatherDisplay:10.37,2013-02-26 19:41:00,
2013-02-26 14:46:00,73.2,69.8,29.78,SSW,205,2.9,9.2,89,0.00,-RA,,0.39,WeatherDisplay:10.37,2013-02-26 19:46:00,
2013-02-26 14:51:00,73.6,69.5,29.78,South,189,2.5,6.9,87,0.00,-RA,,0.39,WeatherDisplay:10.37,2013-02-26 19:51:00,
2013-02-26 14:56:00,73.7,68.9,29.78,SW,221,3.7,6.0,85,0.00,-RA,,0.39,WeatherDisplay:10.37,2013-02-26 19:56:00,
2013-02-26 15:01:00,73.8,68.7,29.78,SW,218,4.2,10.0,84,0.00,SCT,,0.39,WeatherDisplay:10.37,2013-02-26 20:01:00,
2013-02-26 15:06:00,73.7,68.6,29.78,West,259,3.7,8.1,84,0.00,SCT,,0.39,WeatherDisplay:10.37,2013-02-26 20:06:00,
2013-02-26 15:11:00,73.5,67.7,29.78,SW,236,3.1,6.0,82,0.00,SCT,,0.39,WeatherDisplay:10.37,2013-02-26 20:11:00,
2013-02-26 15:16:00,73.4,67.2,29.78,SW,215,4.3,7.0,81,0.00,SCT,,0.39,WeatherDisplay:10.37,2013-02-26 20:16:00,
2013-02-26 15:21:00,73.4,66.9,29.78,WSW,250,4.4,10.4,80,0.00,SCT,,0.39,WeatherDisplay:10.37,2013-02-26 20:21:00,
2013-02-26 15:26:00,73.4,67.2,29.78,SW,231,2.8,5.8,81,0.00,SCT,,0.39,WeatherDisplay:10.37,2013-02-26 20:26:00,
2013-02-26 15:31:00,73.2,66.7,29.78,WNW,301,3.2,5.8,80,0.00,SCT,,0.39,WeatherDisplay:10.37,2013-02-26 20:31:00,
2013-02-26 15:36:00,73.1,66.9,29.79,WSW,249,3.0,5.8,81,0.00,SCT,,0.39,WeatherDisplay:10.37,2013-02-26 20:36:00,
2013-02-26 15:41:00,73.1,66.6,29.79,WSW,246,4.3,10.4,80,0.00,SCT,,0.39,WeatherDisplay:10.37,2013-02-26 20:41:00,
2013-02-26 17:28:00,72.0,65.5,29.80,West,263,0.2,8.1,80,0.00,SCT,,0.39,WeatherDisplay:10.37,2013-02-26 22:28:00,
2013-02-26 17:33:00,71.7,65.6,29.80,SW,226,0.5,2.3,81,0.00,CLR,,0.39,WeatherDisplay:10.37,2013-02-26 22:33:00,
2013-02-26 17:38:00,71.4,65.3,29.80,West,281,1.5,4.6,81,0.00,CLR,,0.39,WeatherDisplay:10.37,2013-02-26 22:38:00,
2013-02-26 17:43:00,71.1,65.0,29.81,SW,233,1.0,3.5,81,0.00,CLR,,0.39,WeatherDisplay:10.37,2013-02-26 22:43:00,
2013-02-26 17:48:00,70.8,65.0,29.80,West,276,0.0,1.1,82,0.00,CLR,,0.39,WeatherDisplay:10.37,2013-02-26 22:48:00,
2013-02-26 17:53:00,70.6,65.2,29.81,WSW,252,0.3,1.1,83,0.00,CLR,,0.39,WeatherDisplay:10.37,2013-02-26 22:53:00,
2013-02-26 17:58:00,70.6,64.8,29.81,SW,229,1.3,1.3,82,0.00,CLR,,0.39,WeatherDisplay:10.37,2013-02-26 22:58:00,
2013-02-26 18:03:00,70.5,65.1,29.81,SW,225,0.3,1.1,83,0.00,CLR,,0.39,WeatherDisplay:10.37,2013-02-26 23:03:00,
2013-02-26 18:08:00,70.3,64.9,29.81,West,276,0.0,1.1,83,0.00,CLR,,0.39,WeatherDisplay:10.37,2013-02-26 23:08:00,
2013-02-26 18:13:00,70.2,64.8,29.81,West,259,0.5,2.3,83,0.00,CLR,,0.39,WeatherDisplay:10.37,2013-02-26 23:13:00,
2013-02-26 18:18:00,69.9,64.8,29.81,SW,231,0.0,1.1,84,0.00,CLR,,0.39,WeatherDisplay:10.37,2013-02-26 23:18:00,
2013-02-26 18:23:00,69.6,64.5,29.81,WSW,248,0.0,0.0,84,0.00,CLR,,0.39,WeatherDisplay:10.37,2013-02-26 23:23:00,
2013-02-26 18:28:00,69.4,64.7,29.81,WNW,283,0.3,1.1,85,0.00,CLR,,0.39,WeatherDisplay:10.37,2013-02-26 23:28:00,
2013-02-26 18:33:00,69.1,64.7,29.82,WNW,283,0.0,0.0,86,0.00,CLR,,0.39,WeatherDisplay:10.37,2013-02-26 23:33:00,
2013-02-26 19:25:00,67.6,64.6,29.83,SW,222,0.0,2.3,90,0.00,CLR,,0.39,WeatherDisplay:10.37,2013-02-27 00:25:00,
2013-02-26 19:30:00,67.6,64.6,29.83,SW,229,0.3,1.1,90,0.00,CLR,,0.39,WeatherDisplay:10.37,2013-02-27 00:30:00,
2013-02-26 19:35:00,67.7,64.7,29.83,SW,214,0.1,1.1,90,0.00,BKN,,0.39,WeatherDisplay:10.37,2013-02-27 00:35:00,
2013-02-26 19:40:00,67.8,64.8,29.83,SW,226,0.0,0.0,90,0.00,BKN,,0.39,WeatherDisplay:10.37,2013-02-27 00:40:00,
2013-02-26 19:45:00,67.7,64.7,29.84,SSW,211,0.1,1.1,90,0.00,BKN,,0.39,WeatherDisplay:10.37,2013-02-27 00:45:00,
2013-02-26 19:50:00,67.7,65.0,29.84,SW,231,0.6,2.3,91,0.00,BKN,,0.39,WeatherDisplay:10.37,2013-02-27 00:50:00,
2013-02-26 19:55:00,67.7,65.0,29.84,WSW,242,0.0,0.0,91,0.00,BKN,,0.39,WeatherDisplay:10.37,2013-02-27 00:55:00,
2013-02-26 20:00:00,67.7,65.0,29.84,West,270,0.0,1.1,91,0.00,BKN,,0.39,WeatherDisplay:10.37,2013-02-27 01:00:00,
2013-02-26 20:05:00,67.5,64.8,29.84,WNW,283,0.0,0.0,91,0.00,OVC,,0.39,WeatherDisplay:10.37,2013-02-27 01:05:00,
2013-02-26 20:10:00,67.4,65.0,29.84,WNW,283,0.0,0.0,92,0.00,OVC,,0.39,WeatherDisplay:10.37,2013-02-27 01:10:00,
2013-02-26 20:15:00,67.2,64.8,29.85,SW,221,0.0,0.0,92,0.00,OVC,,0.39,WeatherDisplay:10.37,2013-02-27 01:15:00,
2013-02-26 20:20:00,67.1,65.0,29.85,SW,216,0.1,1.1,93,0.00,OVC,,0.39,WeatherDisplay:10.37,2013-02-27 01:20:00,
2013-02-26 20:25:00,67.0,64.9,29.85,SSW,203,0.0,0.0,93,0.00,OVC,,0.39,WeatherDisplay:10.37,2013-02-27 01:25:00,
2013-02-26 20:30:00,66.8,64.4,29.85,SSW,203,0.0,0.0,92,0.00,OVC,,0.39,WeatherDisplay:10.37,2013-02-27 01:30:00,
2013-02-26 20:35:00,66.6,64.5,29.85,SSW,203,0.0,0.0,93,0.00,OVC,,0.39,WeatherDisplay:10.37,2013-02-27 01:35:00,
2013-02-26 20:40:00,66.4,64.3,29.85,SSW,203,0.0,0.0,93,0.00,OVC,,0.39,WeatherDisplay:10.37,2013-02-27 01:40:00,
2013-02-26 20:45:00,66.2,64.1,29.85,SW,222,0.1,1.1,93,0.00,OVC,,0.39,WeatherDisplay:10.37,2013-02-27 01:45:00,
2013-02-26 20:50:00,66.0,63.9,29.85,SW,222,0.0,0.0,93,0.00,OVC,,0.39,WeatherDisplay:10.37,2013-02-27 01:50:00,
2013-02-26 20:55:00,65.8,63.7,29.86,SW,222,0.0,0.0,93,0.00,OVC,,0.39,WeatherDisplay:10.37,2013-02-27 01:55:00,
2013-02-26 21:00:00,65.7,63.6,29.86,SW,221,0.0,0.0,93,0.00,OVC,,0.39,WeatherDisplay:10.37,2013-02-27 02:00:00,
2013-02-26 21:05:00,65.6,63.5,29.85,SW,228,0.2,1.1,93,0.00,OVC,,0.39,WeatherDisplay:10.37,2013-02-27 02:05:00,
2013-02-26 21:10:00,65.5,63.4,29.86,SW,228,0.0,0.0,93,0.00,OVC,,0.39,WeatherDisplay:10.37,2013-02-27 02:10:00,
2013-02-26 21:16:00,65.3,63.2,29.85,SW,226,0.0,0.0,93,0.00,OVC,,0.39,WeatherDisplay:10.37,2013-02-27 02:16:00,
2013-02-26 21:21:00,65.3,63.2,29.86,SSW,211,0.0,1.1,93,0.00,OVC,,0.39,WeatherDisplay:10.37,2013-02-27 02:21:00,
2013-02-26 21:26:00,65.2,63.1,29.86,SSW,211,0.0,0.0,93,0.00,OVC,,0.39,WeatherDisplay:10.37,2013-02-27 02:26:00,
2013-02-26 21:31:00,65.0,62.6,29.86,SSW,211,0.0,0.0,92,0.00,OVC,,0.39,WeatherDisplay:10.37,2013-02-27 02:31:00,
2013-02-26 21:36:00,64.9,62.8,29.87,SW,218,0.1,0.0,93,0.00,OVC,,0.39,WeatherDisplay:10.37,2013-02-27 02:36:00,
2013-02-26 21:41:00,64.9,63.1,29.87,SSW,210,0.0,0.0,94,0.00,OVC,,0.39,WeatherDisplay:10.37,2013-02-27 02:41:00,
2013-02-26 21:46:00,64.8,62.7,29.87,SSW,210,0.0,0.0,93,0.00,OVC,,0.39,WeatherDisplay:10.37,2013-02-27 02:46:00,
2013-02-26 21:51:00,64.7,62.9,29.87,SSW,210,0.0,0.0,94,0.00,OVC,,0.39,WeatherDisplay:10.37,2013-02-27 02:51:00,
2013-02-26 21:56:00,64.6,62.8,29.87,SSW,210,0.0,0.0,94,0.00,OVC,,0.39,WeatherDisplay:10.37,2013-02-27 02:56:00,
2013-02-26 22:01:00,64.6,62.8,29.88,SSW,210,0.0,0.0,94,0.00,OVC,,0.39,WeatherDisplay:10.37,2013-02-27 03:01:00,
2013-02-26 22:06:00,64.5,62.7,29.88,SSW,210,0.0,0.0,94,0.00,OVC,,0.39,WeatherDisplay:10.37,2013-02-27 03:06:00,
2013-02-26 22:11:00,64.5,63.0,29.88,SW,215,0.0,1.1,95,0.00,OVC,,0.39,WeatherDisplay:10.37,2013-02-27 03:11:00,
2013-02-26 22:16:00,64.5,63.0,29.87,SW,215,0.0,0.0,95,0.00,OVC,,0.39,WeatherDisplay:10.37,2013-02-27 03:16:00,
2013-02-26 22:21:00,64.5,63.0,29.87,SW,216,0.0,0.0,95,0.00,OVC,,0.39,WeatherDisplay:10.37,2013-02-27 03:21:00,
2013-02-26 22:26:00,64.2,62.4,29.87,SW,216,0.0,0.0,94,0.00,OVC,,0.39,WeatherDisplay:10.37,2013-02-27 03:26:00,
2013-02-26 22:31:00,64.0,62.5,29.87,SW,216,0.0,0.0,95,0.00,OVC,,0.39,WeatherDisplay:10.37,2013-02-27 03:31:00,
2013-02-26 22:36:00,63.7,62.2,29.87,SW,215,0.0,0.0,95,0.00,OVC,,0.39,WeatherDisplay:10.37,2013-02-27 03:36:00,
2013-02-26 22:41:00,63.7,62.2,29.88,SW,216,0.0,0.0,95,0.00,OVC,,0.39,WeatherDisplay:10.37,2013-02-27 03:41:00,
2013-02-26 22:46:00,63.8,62.6,29.88,SSW,207,0.0,0.0,96,0.00,OVC,,0.39,WeatherDisplay:10.37,2013-02-27 03:46:00,
2013-02-26 22:51:00,63.9,62.7,29.88,SSW,207,0.0,0.0,96,0.00,OVC,,0.39,WeatherDisplay:10.37,2013-02-27 03:51:00,
2013-02-26 22:56:00,63.8,62.6,29.88,SW,228,0.0,0.0,96,0.00,OVC,,0.39,WeatherDisplay:10.37,2013-02-27 03:56:00,
2013-02-26 23:01:00,64.0,62.8,29.88,West,274,0.1,0.0,96,0.00,OVC,,0.39,WeatherDisplay:10.37,2013-02-27 04:01:00,
2013-02-26 23:06:00,64.3,63.1,29.88,West,279,0.0,0.0,96,0.00,OVC,,0.39,WeatherDisplay:10.37,2013-02-27 04:06:00,
2013-02-26 23:11:00,64.5,63.3,29.88,WNW,291,0.5,1.1,96,0.00,OVC,,0.39,WeatherDisplay:10.37,2013-02-27 04:11:00,
2013-02-26 23:16:00,64.9,63.7,29.88,WSW,243,0.1,1.1,96,0.00,OVC,,0.39,WeatherDisplay:10.37,2013-02-27 04:16:00,
2013-02-26 23:21:00,65.3,63.8,29.89,WNW,285,0.2,1.1,95,0.00,OVC,,0.39,WeatherDisplay:10.37,2013-02-27 04:21:00,
2013-02-26 23:26:00,65.5,64.0,29.89,West,270,0.0,0.0,95,0.00,OVC,,0.39,WeatherDisplay:10.37,2013-02-27 04:26:00,
2013-02-26 23:31:00,65.8,64.0,29.89,WNW,285,0.0,1.1,94,0.00,OVC,,0.39,WeatherDisplay:10.37,2013-02-27 04:31:00,
2013-02-26 23:36:00,66.1,64.0,29.88,SW,236,0.1,0.0,93,0.00,OVC,,0.39,WeatherDisplay:10.37,2013-02-27 04:36:00,
2013-02-26 23:41:00,66.4,64.0,29.89,WNW,285,0.7,4.6,92,0.00,OVC,,0.39,WeatherDisplay:10.37,2013-02-27 04:41:00,
2013-02-26 23:46:00,66.6,63.9,29.89,West,275,0.0,1.1,91,0.00,OVC,,0.39,WeatherDisplay:10.37,2013-02-27 04:46:00,
2013-02-26 23:51:00,66.9,63.9,29.89,SW,236,0.6,3.5,90,0.00,OVC,,0.39,WeatherDisplay:10.37,2013-02-27 04:51:00,
2013-02-26 23:56:00,67.0,64.0,29.89,WNW,288,0.0,2.3,90,0.00,OVC,,0.39,WeatherDisplay:10.37,2013-02-27 04:56:00,